LVTKL SABE-SAZM

Flight info

Callsign LVTKL
Flight time 0h 55m
Altitude 25000
Route PAL9 GBE UW29 VOTRA VOTRA1Q
Aircraft LJ35/M-SGHRWXY/SB1

Departure

Time 2026-04-21 23:12
Airport Aeroparque Jorge Newbery (SABE)

Arrival

Time 2026-04-22 00:07
Airport Ástor Piazzola International Airport (SAZM)
Time Latitude Longitude Altitude Speed Heading
2026-04-21 22:43 -34.56343 -58.41141 21 ft 0 kts 214°
2026-04-21 22:48 -34.56343 -58.41140 21 ft 0 kts 214°
2026-04-21 22:56 -34.56343 -58.41141 21 ft 0 kts 214°
2026-04-21 22:57 -34.56344 -58.41141 21 ft 0 kts 214°
2026-04-21 22:57 -34.56353 -58.41149 23 ft 3 kts 214°
2026-04-21 22:57 -34.56364 -58.41158 22 ft 2 kts 214°
2026-04-21 22:57 -34.56368 -58.41176 23 ft 4 kts 319°
2026-04-21 22:58 -34.56337 -58.41215 21 ft 9 kts 305°
2026-04-21 22:58 -34.56311 -58.41267 21 ft 6 kts 303°
2026-04-21 22:58 -34.56277 -58.41330 21 ft 11 kts 304°
2026-04-21 22:58 -34.56238 -58.41400 21 ft 4 kts 303°
2026-04-21 22:59 -34.56211 -58.41449 21 ft 9 kts 304°
2026-04-21 22:59 -34.56175 -58.41485 23 ft 7 kts 15°
2026-04-21 22:59 -34.56125 -58.41445 21 ft 7 kts 34°
2026-04-21 22:59 -34.56124 -58.41444 21 ft 0 kts 34°
2026-04-21 23:04 -34.56123 -58.41443 21 ft 1 kts 33°
2026-04-21 23:04 -34.56099 -58.41424 21 ft 7 kts 34°
2026-04-21 23:04 -34.56043 -58.41379 21 ft 12 kts 34°
2026-04-21 23:04 -34.55998 -58.41342 23 ft 7 kts 34°
2026-04-21 23:05 -34.55981 -58.41328 21 ft 3 kts 34°
2026-04-21 23:05 -34.55971 -58.41320 21 ft 0 kts 34°
2026-04-21 23:05 -34.55963 -58.41313 21 ft 5 kts 33°
2026-04-21 23:06 -34.55916 -58.41319 21 ft 10 kts 298°
2026-04-21 23:06 -34.55876 -58.41413 21 ft 15 kts 297°
2026-04-21 23:06 -34.55826 -58.41532 21 ft 14 kts 297°
2026-04-21 23:06 -34.55797 -58.41602 21 ft 11 kts 297°
2026-04-21 23:07 -34.55753 -58.41705 21 ft 16 kts 297°
2026-04-21 23:07 -34.55692 -58.41829 20 ft 16 kts 305°
2026-04-21 23:07 -34.55623 -58.41953 22 ft 20 kts 306°
2026-04-21 23:07 -34.55563 -58.42057 21 ft 13 kts 307°
2026-04-21 23:08 -34.55500 -58.42160 21 ft 17 kts 307°
2026-04-21 23:08 -34.55427 -58.42276 23 ft 16 kts 307°
2026-04-21 23:08 -34.55377 -58.42357 21 ft 10 kts 301°
2026-04-21 23:08 -34.55368 -58.42387 39 ft 0 kts 282°
2026-04-21 23:10 -34.55367 -58.42391 36 ft 3 kts 282°
2026-04-21 23:10 -34.55359 -58.42444 22 ft 9 kts 275°
2026-04-21 23:10 -34.55383 -58.42512 21 ft 10 kts 226°
2026-04-21 23:10 -34.55416 -58.42486 21 ft 6 kts 124°
2026-04-21 23:11 -34.55417 -58.42485 24 ft 0 kts 124°
2026-04-21 23:11 -34.55419 -58.42482 23 ft 4 kts 125°
2026-04-21 23:11 -34.55536 -58.42272 25 ft 79 kts 124°
2026-04-21 23:12 -34.56043 -58.41368 334 ft 162 kts 129°
2026-04-21 23:12 -34.56716 -58.40206 1092 ft 170 kts 123°
2026-04-21 23:12 -34.57375 -58.39085 1847 ft 160 kts 121°
2026-04-21 23:12 -34.57755 -58.37820 2244 ft 163 kts 89°
2026-04-21 23:13 -34.57492 -58.36501 2770 ft 162 kts 60°
2026-04-21 23:13 -34.56720 -58.35457 3167 ft 178 kts 40°
2026-04-21 23:13 -34.55673 -58.34464 3267 ft 203 kts 36°
2026-04-21 23:13 -34.54527 -58.33439 3826 ft 208 kts 37°
2026-04-21 23:14 -34.53423 -58.32391 4792 ft 190 kts 36°
2026-04-21 23:14 -34.52366 -58.31384 5009 ft 205 kts 36°
2026-04-21 23:14 -34.51193 -58.30276 5007 ft 223 kts 37°
2026-04-21 23:14 -34.50304 -58.28658 5036 ft 242 kts 69°
2026-04-21 23:15 -34.50170 -58.26649 5294 ft 239 kts 93°
2026-04-21 23:15 -34.50668 -58.24697 5404 ft 250 kts 116°
2026-04-21 23:15 -34.51798 -58.23027 5404 ft 263 kts 137°
2026-04-21 23:15 -34.53375 -58.21899 5441 ft 266 kts 159°
2026-04-21 23:16 -34.55169 -58.21374 5561 ft 262 kts 169°
2026-04-21 23:16 -34.56942 -58.21034 5891 ft 254 kts 172°
2026-04-21 23:16 -34.58701 -58.20787 5960 ft 257 kts 175°
2026-04-21 23:16 -34.59853 -58.20743 6102 ft 254 kts 183°
2026-04-21 23:17 -34.61475 -58.20960 6298 ft 250 kts 190°
2026-04-21 23:17 -34.63196 -58.21278 6448 ft 250 kts 191°
2026-04-21 23:18 -34.64909 -58.21644 6616 ft 248 kts 193°
2026-04-21 23:18 -34.66556 -58.22006 7055 ft 234 kts 193°
2026-04-21 23:18 -34.68149 -58.22344 7239 ft 234 kts 194°
2026-04-21 23:18 -34.69777 -58.22737 7316 ft 238 kts 194°
2026-04-21 23:19 -34.71378 -58.23152 7578 ft 234 kts 196°
2026-04-21 23:19 -34.72959 -58.23585 7825 ft 230 kts 196°
2026-04-21 23:19 -34.74510 -58.24002 8088 ft 226 kts 196°
2026-04-21 23:19 -34.76051 -58.24376 8321 ft 225 kts 194°
2026-04-21 23:20 -34.77602 -58.24675 8554 ft 226 kts 191°
2026-04-21 23:20 -34.79169 -58.24869 8800 ft 227 kts 188°
2026-04-21 23:20 -34.80731 -58.24937 9047 ft 229 kts 184°
2026-04-21 23:20 -34.82337 -58.24864 9319 ft 232 kts 179°
2026-04-21 23:21 -34.83938 -58.24663 9733 ft 226 kts 178°
2026-04-21 23:21 -34.85472 -58.24527 10181 ft 219 kts 182°
2026-04-21 23:21 -34.87022 -58.24515 10414 ft 224 kts 185°
2026-04-21 23:21 -34.88580 -58.24575 10879 ft 229 kts 188°
2026-04-21 23:22 -34.90182 -58.24744 11347 ft 233 kts 190°
2026-04-21 23:22 -34.91815 -58.24957 11819 ft 238 kts 191°
2026-04-21 23:22 -34.93494 -58.25175 12374 ft 239 kts 191°
2026-04-21 23:22 -34.95137 -58.25347 12938 ft 240 kts 189°
2026-04-21 23:23 -34.96824 -58.25547 13380 ft 246 kts 193°
2026-04-21 23:23 -34.98539 -58.25865 13803 ft 251 kts 196°
2026-04-21 23:23 -35.00243 -58.26263 14315 ft 248 kts 198°
2026-04-21 23:23 -35.01921 -58.26689 14863 ft 245 kts 198°
2026-04-21 23:24 -35.03603 -58.27112 15283 ft 249 kts 198°
2026-04-21 23:24 -35.05329 -58.27507 15646 ft 256 kts 197°
2026-04-21 23:24 -35.07076 -58.27829 16116 ft 257 kts 194°
2026-04-21 23:24 -35.08851 -58.28049 16642 ft 257 kts 191°
2026-04-21 23:25 -35.10461 -58.28079 18206 ft 180 kts 191°
2026-04-21 23:25 -35.11822 -58.28025 18285 ft 218 kts 193°
2026-04-21 23:25 -35.13409 -58.28283 18361 ft 232 kts 199°
2026-04-21 23:25 -35.15043 -58.28690 18496 ft 245 kts 201°
2026-04-21 23:26 -35.16672 -58.29139 19131 ft 232 kts 201°
2026-04-21 23:26 -35.18232 -58.29556 19513 ft 236 kts 201°
2026-04-21 23:26 -35.19894 -58.29962 19802 ft 244 kts 199°
2026-04-21 23:26 -35.21575 -58.30258 20307 ft 242 kts 195°
2026-04-21 23:27 -35.23252 -58.30457 20570 ft 251 kts 196°
2026-04-21 23:27 -35.25049 -58.30770 20576 ft 268 kts 198°
2026-04-21 23:27 -35.26883 -58.31175 20998 ft 265 kts 199°
2026-04-21 23:27 -35.28667 -58.31597 21538 ft 259 kts 200°
2026-04-21 23:28 -35.30471 -58.32013 21887 ft 263 kts 199°
2026-04-21 23:28 -35.32271 -58.32448 22103 ft 268 kts 203°
2026-04-21 23:28 -35.34084 -58.33066 22428 ft 269 kts 205°
2026-04-21 23:28 -35.35872 -58.33722 22818 ft 269 kts 205°
2026-04-21 23:29 -35.37669 -58.34374 23200 ft 270 kts 205°
2026-04-21 23:29 -35.39493 -58.34980 23539 ft 273 kts 203°
2026-04-21 23:29 -35.41351 -58.35551 23816 ft 274 kts 205°
2026-04-21 23:29 -35.43123 -58.36321 24082 ft 270 kts 213°
2026-04-21 23:30 -35.44843 -58.37278 24367 ft 271 kts 214°
2026-04-21 23:30 -35.46530 -58.38290 24705 ft 268 kts 216°
2026-04-21 23:30 -35.48198 -58.39361 24874 ft 275 kts 216°
2026-04-21 23:30 -35.49932 -58.40469 24946 ft 285 kts 216°
2026-04-21 23:31 -35.51759 -58.41517 25023 ft 296 kts 212°
2026-04-21 23:31 -35.53673 -58.42510 25085 ft 306 kts 210°
2026-04-21 23:31 -35.55644 -58.43499 25409 ft 304 kts 211°
2026-04-21 23:31 -35.57648 -58.44441 25480 ft 313 kts 208°
2026-04-21 23:32 -35.59730 -58.45397 25372 ft 326 kts 206°
2026-04-21 23:32 -35.61949 -58.46153 25493 ft 334 kts 200°
2026-04-21 23:32 -35.64279 -58.46674 25361 ft 348 kts 196°
2026-04-21 23:32 -35.66722 -58.47089 25281 ft 357 kts 194°
2026-04-21 23:33 -35.69187 -58.47394 25295 ft 363 kts 191°
2026-04-21 23:33 -35.71742 -58.47515 25264 ft 370 kts 187°
2026-04-21 23:33 -35.74328 -58.47441 25353 ft 372 kts 184°
2026-04-21 23:33 -35.76931 -58.47258 25293 ft 378 kts 182°
2026-04-21 23:34 -35.79583 -58.47014 25158 ft 385 kts 181°
2026-04-21 23:34 -35.82258 -58.46577 25124 ft 390 kts 176°
2026-04-21 23:34 -35.84893 -58.45931 25184 ft 391 kts 173°
2026-04-21 23:34 -35.87548 -58.45161 25167 ft 393 kts 172°
2026-04-21 23:35 -35.90216 -58.44345 25119 ft 396 kts 171°
2026-04-21 23:35 -35.92882 -58.43419 25093 ft 398 kts 169°
2026-04-21 23:35 -35.95527 -58.42388 25135 ft 398 kts 167°
2026-04-21 23:35 -35.98146 -58.41264 25182 ft 398 kts 166°
2026-04-21 23:36 -36.00747 -58.40071 25199 ft 398 kts 165°
2026-04-21 23:36 -36.03309 -58.38847 25179 ft 400 kts 163°
2026-04-21 23:36 -36.05902 -58.37538 25154 ft 403 kts 162°
2026-04-21 23:36 -36.08483 -58.36174 25165 ft 404 kts 162°
2026-04-21 23:37 -36.11087 -58.34876 25234 ft 402 kts 164°
2026-04-21 23:37 -36.13699 -58.33669 25308 ft 400 kts 166°
2026-04-21 23:37 -36.16327 -58.32546 25373 ft 398 kts 168°
2026-04-21 23:37 -36.18977 -58.31612 25509 ft 393 kts 171°
2026-04-21 23:38 -36.21623 -58.30743 25519 ft 394 kts 172°
2026-04-21 23:38 -36.24272 -58.29949 25320 ft 400 kts 173°
2026-04-21 23:38 -36.27024 -58.29247 25162 ft 403 kts 176°
2026-04-21 23:38 -36.29784 -58.28697 25202 ft 399 kts 179°
2026-04-21 23:39 -36.32522 -58.28319 25382 ft 391 kts 181°
2026-04-21 23:39 -36.35229 -58.27972 25413 ft 391 kts 180°
2026-04-21 23:39 -36.37930 -58.27643 25394 ft 387 kts 180°
2026-04-21 23:39 -36.40581 -58.27256 25171 ft 390 kts 180°
2026-04-21 23:40 -36.43285 -58.26889 24894 ft 386 kts 182°
2026-04-21 23:40 -36.45915 -58.26512 24708 ft 374 kts 179°
2026-04-21 23:40 -36.48466 -58.26020 24345 ft 368 kts 178°
2026-04-21 23:40 -36.50955 -58.25485 23852 ft 357 kts 177°
2026-04-21 23:41 -36.53351 -58.24846 23459 ft 346 kts 174°
2026-04-21 23:41 -36.55679 -58.24083 22804 ft 344 kts 172°
2026-04-21 23:41 -36.57961 -58.23280 22108 ft 345 kts 171°
2026-04-21 23:41 -36.60243 -58.22473 21694 ft 335 kts 172°
2026-04-21 23:42 -36.62482 -58.21778 21246 ft 328 kts 172°
2026-04-21 23:42 -36.64671 -58.21040 20855 ft 322 kts 171°
2026-04-21 23:42 -36.66792 -58.20268 20375 ft 321 kts 169°
2026-04-21 23:42 -36.68929 -58.19459 19913 ft 318 kts 168°
2026-04-21 23:43 -36.71029 -58.18622 19491 ft 315 kts 167°
2026-04-21 23:43 -36.73088 -58.17765 19101 ft 308 kts 166°
2026-04-21 23:43 -36.75092 -58.16934 18716 ft 301 kts 166°
2026-04-21 23:43 -36.77072 -58.16123 18312 ft 296 kts 166°
2026-04-21 23:44 -36.78362 -58.15574 18005 ft 294 kts 165°
2026-04-21 23:44 -36.80272 -58.14723 17625 ft 288 kts 163°
2026-04-21 23:44 -36.82141 -58.13833 17140 ft 287 kts 162°
2026-04-21 23:44 -36.83987 -58.12930 16708 ft 283 kts 162°
2026-04-21 23:45 -36.85822 -58.12071 16311 ft 279 kts 163°
2026-04-21 23:45 -36.89444 -58.10524 15557 ft 271 kts 166°
2026-04-21 23:45 -36.91204 -58.09798 15193 ft 268 kts 165°
2026-04-21 23:46 -36.92968 -58.09040 14823 ft 265 kts 163°
2026-04-21 23:46 -36.94683 -58.08248 14525 ft 261 kts 161°
2026-04-21 23:46 -36.96367 -58.07400 14192 ft 258 kts 160°
2026-04-21 23:46 -36.97966 -58.06557 14161 ft 245 kts 160°
2026-04-21 23:47 -36.99529 -58.05744 14125 ft 240 kts 161°
2026-04-21 23:47 -37.01112 -58.04969 14095 ft 248 kts 163°
2026-04-21 23:47 -37.02737 -58.04254 13984 ft 248 kts 165°
2026-04-21 23:47 -37.04375 -58.03662 13718 ft 243 kts 168°
2026-04-21 23:48 -37.06016 -58.03144 13362 ft 242 kts 169°
2026-04-21 23:48 -37.07664 -58.02663 12952 ft 243 kts 171°
2026-04-21 23:48 -37.09321 -58.02239 12585 ft 242 kts 173°
2026-04-21 23:48 -37.10983 -58.01889 12199 ft 242 kts 174°
2026-04-21 23:49 -37.12610 -58.01580 11896 ft 238 kts 175°
2026-04-21 23:49 -37.14255 -58.01344 11521 ft 238 kts 178°
2026-04-21 23:49 -37.15904 -58.01154 11166 ft 237 kts 178°
2026-04-21 23:49 -37.17537 -58.00934 10875 ft 234 kts 175°
2026-04-21 23:50 -37.19143 -58.00656 10570 ft 232 kts 174°
2026-04-21 23:50 -37.20736 -58.00374 10248 ft 230 kts 175°
2026-04-21 23:50 -37.22302 -58.00128 9945 ft 229 kts 175°
2026-04-21 23:50 -37.23895 -57.99867 9625 ft 226 kts 174°
2026-04-21 23:51 -37.25444 -57.99535 9279 ft 225 kts 171°
2026-04-21 23:51 -37.26958 -57.99140 8947 ft 224 kts 169°
2026-04-21 23:51 -37.28465 -57.98649 8623 ft 222 kts 165°
2026-04-21 23:51 -37.29958 -57.98119 8365 ft 223 kts 165°
2026-04-21 23:52 -37.31474 -57.97597 8118 ft 226 kts 165°
2026-04-21 23:52 -37.32995 -57.97071 7906 ft 227 kts 165°
2026-04-21 23:52 -37.34523 -57.96527 7554 ft 231 kts 165°
2026-04-21 23:52 -37.36093 -57.96064 7239 ft 229 kts 170°
2026-04-21 23:53 -37.37634 -57.95735 6960 ft 225 kts 172°
2026-04-21 23:53 -37.39184 -57.95457 6595 ft 224 kts 173°
2026-04-21 23:53 -37.40736 -57.95224 6175 ft 226 kts 174°
2026-04-21 23:53 -37.42291 -57.95050 5862 ft 221 kts 176°
2026-04-21 23:54 -37.43838 -57.94923 5774 ft 227 kts 177°
2026-04-21 23:54 -37.45451 -57.94851 5594 ft 234 kts 182°
2026-04-21 23:54 -37.46980 -57.95186 5442 ft 219 kts 199°
2026-04-21 23:54 -37.48415 -57.95808 5111 ft 219 kts 200°
2026-04-21 23:55 -37.49823 -57.96464 5018 ft 211 kts 204°
2026-04-21 23:55 -37.51150 -57.97162 4830 ft 206 kts 205°
2026-04-21 23:55 -37.52507 -57.97919 4312 ft 221 kts 206°
2026-04-21 23:55 -37.53911 -57.98741 4181 ft 216 kts 205°
2026-04-21 23:56 -37.55230 -57.99491 4246 ft 207 kts 205°
2026-04-21 23:56 -37.56615 -58.00175 4245 ft 213 kts 202°
2026-04-21 23:56 -37.58034 -58.00803 4039 ft 223 kts 199°
2026-04-21 23:56 -37.59485 -58.01410 4096 ft 213 kts 199°
2026-04-21 23:57 -37.60877 -58.01990 4093 ft 206 kts 198°
2026-04-21 23:57 -37.62227 -58.02518 4187 ft 202 kts 198°
2026-04-21 23:57 -37.63591 -58.02846 4296 ft 199 kts 178°
2026-04-21 23:57 -37.64902 -58.02486 4337 ft 192 kts 155°
2026-04-21 23:58 -37.66063 -58.01619 4202 ft 199 kts 140°
2026-04-21 23:58 -37.67093 -58.00463 4144 ft 198 kts 133°
2026-04-21 23:58 -37.68073 -57.99221 3945 ft 202 kts 131°
2026-04-21 23:58 -37.69070 -57.97941 3735 ft 204 kts 133°
2026-04-21 23:59 -37.70060 -57.96773 3683 ft 189 kts 135°
2026-04-21 23:59 -37.71076 -57.95669 3356 ft 192 kts 136°
2026-04-21 23:59 -37.72089 -57.94587 3198 ft 194 kts 134°
2026-04-21 23:59 -37.73083 -57.93462 3274 ft 190 kts 133°
2026-04-22 00:00 -37.74061 -57.92345 3306 ft 188 kts 133°
2026-04-22 00:00 -37.75018 -57.91195 3274 ft 195 kts 130°
2026-04-22 00:00 -37.75982 -57.89988 3377 ft 195 kts 131°
2026-04-22 00:00 -37.76968 -57.88752 3314 ft 204 kts 130°
2026-04-22 00:01 -37.77944 -57.87433 3353 ft 204 kts 128°
2026-04-22 00:01 -37.78843 -57.86019 3325 ft 212 kts 121°
2026-04-22 00:01 -37.79727 -57.84497 3364 ft 217 kts 122°
2026-04-22 00:01 -37.80637 -57.82942 3140 ft 220 kts 122°
2026-04-22 00:02 -37.81558 -57.81410 2834 ft 219 kts 123°
2026-04-22 00:02 -37.82455 -57.79871 2624 ft 211 kts 117°
2026-04-22 00:02 -37.83248 -57.78315 2322 ft 213 kts 116°
2026-04-22 00:02 -37.84011 -57.76732 2221 ft 208 kts 115°
2026-04-22 00:03 -37.84741 -57.75158 2075 ft 211 kts 114°
2026-04-22 00:03 -37.85471 -57.73569 2047 ft 208 kts 113°
2026-04-22 00:03 -37.86162 -57.71964 1989 ft 207 kts 112°
2026-04-22 00:03 -37.86811 -57.70374 2018 ft 194 kts 110°
2026-04-22 00:04 -37.87395 -57.68953 1921 ft 172 kts 112°
2026-04-22 00:04 -37.88081 -57.67747 1712 ft 170 kts 121°
2026-04-22 00:04 -37.88842 -57.66598 1445 ft 163 kts 123°
2026-04-22 00:04 -37.89484 -57.65552 1417 ft 147 kts 120°
2026-04-22 00:05 -37.90035 -57.64470 1192 ft 134 kts 111°
2026-04-22 00:05 -37.90423 -57.63453 929 ft 130 kts 107°
2026-04-22 00:05 -37.90795 -57.62423 944 ft 126 kts 109°
2026-04-22 00:05 -37.91219 -57.61494 834 ft 120 kts 122°
2026-04-22 00:06 -37.91774 -57.60670 620 ft 124 kts 121°
2026-04-22 00:06 -37.92215 -57.59788 416 ft 115 kts 117°
2026-04-22 00:06 -37.92614 -57.58916 206 ft 114 kts 120°
2026-04-22 00:06 -37.93037 -57.58086 54 ft 104 kts 122°
2026-04-22 00:07 -37.93371 -57.57424 46 ft 78 kts 122°
2026-04-22 00:07 -37.93642 -57.56860 49 ft 72 kts 121°
2026-04-22 00:07 -37.93805 -57.56543 49 ft 31 kts 121°
2026-04-22 00:07 -37.93890 -57.56384 47 ft 16 kts 131°
2026-04-22 00:08 -37.93972 -57.56333 47 ft 12 kts 197°
2026-04-22 00:08 -37.94009 -57.56399 47 ft 12 kts 242°
2026-04-22 00:08 -37.94029 -57.56510 48 ft 15 kts 300°
2026-04-22 00:08 -37.93969 -57.56645 48 ft 20 kts 300°
2026-04-22 00:09 -37.93906 -57.56789 48 ft 18 kts 300°
2026-04-22 00:09 -37.93838 -57.56943 48 ft 22 kts 297°
2026-04-22 00:09 -37.93753 -57.57131 48 ft 35 kts 299°
2026-04-22 00:09 -37.93526 -57.57656 48 ft 90 kts 300°
2026-04-22 00:10 -37.93300 -57.58107 48 ft 15 kts 344°
2026-04-22 00:10 -37.93252 -57.58114 48 ft 7 kts 327°
2026-04-22 00:10 -37.93250 -57.58115 48 ft 0 kts 327°